User: anonymous   Login
Location: Unspecified
(0.0000°N, 0.0000°E)
Time: 20:04:22
(UTC+00:00)
Language:

STRAND 1 - Orbit

View from above orbital plane
View from above orbital plane
View from above satellite
View from above satellite

Ground track
Ground track

The orbit data is extracted from the following two-line orbital elements,

1 39090U 13009E   20268.49982515 +.00000004 +00000-0 +16515-4 0  9991
2 39090 098.4485 110.6569 0009143 357.7968 002.3176 14.35144878396890
Epoch (UTC): 24 September 2020 11:59:44
Eccentricity: 0.0009143
inclination: 98.4485°
perigee height: 768 km
apogee height: 781 km
right ascension of ascending node: 110.6569°
argument of perigee: 357.7968°
revolutions per day: 14.35144878
mean anomaly at epoch: 2.3176°
orbit number at epoch: 39689

The dashed part of the orbit path shows where the satellite is in the earth's shadow,  

DLR